Radiation Dose at Monitoring Post of Fukushima Daini Nuclear Power Station
Date,Time,MP-1(microSv/h),MP-2(microSv/h),MP-3(microSv/h),MP-4(microSv/h),MP-5(microSv/h),MP-6(microSv/h),MP-7(microSv/h),Wind Direction,Wind Velocity(m/s),Rain
2023/10/14,00:00,0.147,0.133,0.215,0.203,0.210,0.119,0.076,northwest,4.7,No
2023/10/14,00:10,0.147,0.132,0.215,0.204,0.210,0.119,0.076,northwest,4.8,No
2023/10/14,00:20,0.147,0.132,0.214,0.202,0.210,0.119,0.076,west-northwest,4.6,No
2023/10/14,00:30,0.147,0.134,0.214,0.203,0.208,0.120,0.077,west-northwest,4.1,No
2023/10/14,00:40,0.147,0.133,0.214,0.203,0.209,0.120,0.077,west-northwest,4.1,No
2023/10/14,00:50,0.148,0.133,0.213,0.203,0.210,0.119,0.075,west-northwest,4.3,No
2023/10/14,01:00,0.148,0.133,0.214,0.203,0.208,0.118,0.076,west-northwest,4.3,No
2023/10/14,01:10,0.147,0.134,0.214,0.203,0.210,0.119,0.076,northwest,5.0,No
2023/10/14,01:20,0.148,0.134,0.215,0.203,0.208,0.118,0.076,west-northwest,5.6,No
2023/10/14,01:30,0.147,0.133,0.213,0.202,0.209,0.120,0.076,northwest,5.0,No
2023/10/14,01:40,0.147,0.133,0.216,0.202,0.209,0.120,0.076,northwest,5.1,No
2023/10/14,01:50,0.147,0.133,0.215,0.203,0.210,0.120,0.077,northwest,5.1,No
2023/10/14,02:00,0.147,0.133,0.214,0.203,0.209,0.120,0.076,northwest,5.0,No
2023/10/14,02:10,0.147,0.133,0.214,0.203,0.209,0.119,0.076,west-northwest,4.9,No
2023/10/14,02:20,0.148,0.133,0.215,0.204,0.210,0.119,0.076,west-northwest,4.8,No
2023/10/14,02:30,0.146,0.134,0.214,0.203,0.210,0.120,0.076,west-northwest,5.0,No
2023/10/14,02:40,0.148,0.132,0.214,0.203,0.209,0.119,0.076,west-northwest,5.1,No
2023/10/14,02:50,0.148,0.134,0.214,0.203,0.208,0.119,0.076,west-northwest,5.2,No
2023/10/14,03:00,0.146,0.133,0.215,0.204,0.208,0.119,0.076,west-northwest,5.3,No
2023/10/14,03:10,0.147,0.134,0.214,0.203,0.210,0.120,0.076,west-northwest,4.9,No
2023/10/14,03:20,0.146,0.133,0.215,0.202,0.208,0.119,0.076,west-northwest,4.7,No
2023/10/14,03:30,0.147,0.134,0.213,0.202,0.209,0.120,0.076,west-northwest,5.0,No
2023/10/14,03:40,0.148,0.133,0.214,0.202,0.209,0.119,0.076,west-northwest,5.2,No
2023/10/14,03:50,0.147,0.132,0.214,0.203,0.208,0.119,0.075,west-northwest,5.4,No
2023/10/14,04:00,0.148,0.133,0.214,0.203,0.210,0.118,0.076,west-northwest,5.3,No
2023/10/14,04:10,0.147,0.133,0.214,0.203,0.208,0.120,0.076,west-northwest,5.1,No
2023/10/14,04:20,0.147,0.132,0.214,0.203,0.209,0.120,0.075,west-northwest,5.2,No
2023/10/14,04:30,0.147,0.133,0.212,0.202,0.209,0.120,0.076,west-northwest,5.1,No
2023/10/14,04:40,0.147,0.133,0.215,0.203,0.210,0.119,0.075,west-northwest,5.0,No
2023/10/14,04:50,0.146,0.133,0.215,0.203,0.208,0.118,0.076,west-northwest,4.8,No
2023/10/14,05:00,0.147,0.134,0.214,0.204,0.208,0.119,0.076,west-northwest,5.1,No
2023/10/14,05:10,0.146,0.132,0.214,0.203,0.209,0.120,0.075,west-northwest,5.1,No
2023/10/14,05:20,0.147,0.133,0.215,0.204,0.208,0.120,0.076,west-northwest,4.6,No
2023/10/14,05:30,0.147,0.134,0.213,0.202,0.209,0.119,0.076,west-northwest,4.4,No
2023/10/14,05:40,0.146,0.132,0.214,0.203,0.208,0.118,0.076,west-northwest,4.0,No
2023/10/14,05:50,0.147,0.133,0.214,0.203,0.209,0.119,0.076,west-northwest,4.3,No
2023/10/14,06:00,0.147,0.133,0.214,0.203,0.209,0.118,0.076,west-northwest,4.9,No
2023/10/14,06:10,0.147,0.133,0.214,0.203,0.209,0.120,0.076,west-northwest,4.4,No
2023/10/14,06:20,0.148,0.133,0.214,0.202,0.209,0.118,0.077,west-northwest,4.2,No
2023/10/14,06:30,0.148,0.132,0.215,0.203,0.208,0.119,0.076,west-northwest,3.7,No
2023/10/14,06:40,0.146,0.132,0.214,0.203,0.210,0.120,0.076,west-northwest,3.7,No
2023/10/14,06:50,0.147,0.134,0.215,0.204,0.209,0.120,0.077,west-northwest,3.3,No
2023/10/14,07:00,0.146,0.133,0.215,0.203,0.208,0.119,0.076,west-northwest,2.5,No
2023/10/14,07:10,0.147,0.133,0.214,0.202,0.210,0.120,0.076,west-northwest,3.1,No
2023/10/14,07:20,0.146,0.134,0.214,0.202,0.209,0.119,0.076,west-northwest,3.0,No
2023/10/14,07:30,0.146,0.133,0.215,0.201,0.210,0.119,0.074,west-northwest,3.3,No
2023/10/14,07:40,0.147,0.132,0.214,0.202,0.208,0.119,0.076,west-northwest,2.6,No
2023/10/14,07:50,0.146,0.133,0.214,0.201,0.210,0.119,0.075,west,2.7,No
2023/10/14,08:00,0.148,0.131,0.214,0.200,0.208,0.119,0.075,west,2.9,No
2023/10/14,08:10,0.147,0.133,0.213,0.202,0.211,0.119,0.076,west-northwest,2.2,No
2023/10/14,08:20,0.147,0.132,0.213,0.201,0.208,0.119,0.076,west-northwest,1.4,No
2023/10/14,08:30,0.147,0.133,0.213,0.204,0.209,0.119,0.076,west,0.8,No
2023/10/14,08:40,0.146,0.133,0.214,0.201,0.207,0.120,0.075,west-northwest,0.9,No
2023/10/14,08:50,0.147,0.133,0.213,0.202,0.209,0.120,0.075,-,CALM,No
2023/10/14,09:00,0.147,0.132,0.214,0.202,0.209,0.119,0.076,west-southwest,1.1,No
2023/10/14,09:10,0.145,0.133,0.213,0.199,0.206,0.118,0.075,-,CALM,No
2023/10/14,09:20,0.145,0.131,0.214,0.201,0.208,0.119,0.075,west,1.3,No
2023/10/14,09:30,0.146,0.133,0.213,0.202,0.209,0.119,0.074,-,CALM,No
2023/10/14,09:40,0.146,0.132,0.214,0.202,0.208,0.118,0.076,east-southeast,1.3,No
2023/10/14,09:50,0.145,0.132,0.213,0.201,0.206,0.119,0.076,east-southeast,1.5,No
2023/10/14,10:00,0.146,0.132,0.214,0.199,0.206,0.119,0.077,east,2.2,No
2023/10/14,10:10,0.146,0.132,0.213,0.200,0.206,0.119,0.075,east-southeast,2.2,No
2023/10/14,10:20,0.145,0.132,0.211,0.200,0.209,0.118,0.076,east-southeast,3.2,No
2023/10/14,10:30,0.145,0.131,0.210,0.200,0.210,0.119,0.075,southeast,2.6,No
2023/10/14,10:40,0.145,0.133,0.210,0.204,0.208,0.119,0.075,southeast,2.6,No
2023/10/14,10:50,0.145,0.133,0.214,0.203,0.208,0.120,0.076,southeast,3.2,No
2023/10/14,11:00,0.144,0.133,0.215,0.202,0.206,0.119,0.076,southeast,2.7,Yes
2023/10/14,11:10,0.145,0.132,0.212,0.201,0.206,0.119,0.076,southeast,2.1,No
2023/10/14,11:20,0.146,0.132,0.212,0.200,0.206,0.120,0.076,southeast,2.3,No
2023/10/14,11:30,0.146,0.132,0.211,0.201,0.208,0.120,0.076,east-southeast,3.0,No
2023/10/14,11:40,0.146,0.132,0.214,0.201,0.210,0.119,0.075,east-southeast,3.3,No
2023/10/14,11:50,0.146,0.131,0.215,0.205,0.209,0.119,0.076,east-southeast,3.2,No
2023/10/14,12:00,0.146,0.134,0.214,0.204,0.209,0.118,0.076,east-southeast,2.9,No
2023/10/14,12:10,0.145,0.133,0.214,0.203,0.207,0.119,0.076,east-southeast,2.9,No
2023/10/14,12:20,0.146,0.133,0.211,0.202,0.207,0.120,0.077,southeast,3.2,No
2023/10/14,12:30,0.145,0.133,0.213,0.200,0.206,0.119,0.076,southeast,3.4,No
2023/10/14,12:40,0.146,0.132,0.212,0.201,0.207,0.120,0.076,southeast,3.3,No
2023/10/14,12:50,0.145,0.132,0.213,0.200,0.206,0.119,0.076,south-southeast,3.0,No
2023/10/14,13:00,0.146,0.132,0.216,0.201,0.207,0.119,0.075,south-southeast,3.6,No
2023/10/14,13:10,0.145,0.132,0.214,0.204,0.208,0.119,0.075,south-southeast,4.1,No
2023/10/14,13:20,0.146,0.132,0.213,0.203,0.208,0.119,0.075,south-southeast,4.2,No
2023/10/14,13:30,0.146,0.132,0.214,0.203,0.208,0.121,0.076,south-southeast,4.7,No
2023/10/14,13:40,0.145,0.134,0.212,0.202,0.208,0.120,0.076,south-southeast,4.3,No
2023/10/14,13:50,0.146,0.132,0.212,0.201,0.210,0.119,0.076,south-southeast,4.4,No
2023/10/14,14:00,0.146,0.132,0.214,0.203,0.211,0.120,0.075,south-southeast,4.9,No
2023/10/14,14:10,0.146,0.133,0.215,0.205,0.210,0.119,0.075,south-southeast,4.7,No
2023/10/14,14:20,0.145,0.132,0.214,0.203,0.209,0.119,0.076,south-southeast,4.7,No
2023/10/14,14:30,0.146,0.132,0.215,0.201,0.208,0.119,0.077,south-southeast,4.5,No
2023/10/14,14:40,0.148,0.133,0.216,0.205,0.210,0.119,0.077,south-southeast,4.5,No
2023/10/14,14:50,0.149,0.133,0.215,0.205,0.210,0.119,0.076,south-southeast,4.7,No
2023/10/14,15:00,0.147,0.133,0.217,0.203,0.209,0.120,0.076,south-southeast,4.8,No
2023/10/14,15:10,0.147,0.133,0.216,0.205,0.212,0.120,0.077,south-southeast,5.0,No
2023/10/14,15:20,0.149,0.133,0.216,0.204,0.210,0.120,0.076,south-southeast,4.9,No
2023/10/14,15:30,0.148,0.133,0.215,0.204,0.210,0.120,0.075,south-southeast,4.6,No
2023/10/14,15:40,0.147,0.134,0.215,0.204,0.210,0.119,0.076,south-southeast,3.7,No
2023/10/14,15:50,0.148,0.133,0.217,0.204,0.209,0.120,0.076,south-southeast,3.2,No
2023/10/14,16:00,0.146,0.133,0.215,0.204,0.211,0.119,0.076,southeast,3.0,No
2023/10/14,16:10,0.150,0.133,0.216,0.203,0.208,0.119,0.076,south-southeast,4.0,No
2023/10/14,16:20,0.146,0.134,0.214,0.206,0.211,0.121,0.076,south-southeast,4.2,No
2023/10/14,16:30,0.148,0.133,0.217,0.203,0.210,0.119,0.077,south-southeast,4.9,No
2023/10/14,16:40,0.148,0.134,0.214,0.205,0.210,0.120,0.076,south,4.8,No
2023/10/14,16:50,0.148,0.133,0.216,0.204,0.211,0.120,0.076,south-southeast,4.9,No
2023/10/14,17:00,0.148,0.134,0.216,0.204,0.210,0.119,0.076,south-southeast,5.5,No
2023/10/14,17:10,0.147,0.133,0.217,0.202,0.211,0.120,0.076,south,4.3,No
2023/10/14,17:20,0.147,0.133,0.215,0.205,0.210,0.119,0.076,south,4.7,No
2023/10/14,17:30,0.147,0.133,0.215,0.203,0.212,0.120,0.077,south,5.0,No
2023/10/14,17:40,0.147,0.133,0.216,0.205,0.209,0.120,0.076,south,4.9,No
2023/10/14,17:50,0.149,0.135,0.216,0.203,0.210,0.120,0.077,south,4.4,No
2023/10/14,18:00,0.147,0.133,0.216,0.205,0.208,0.120,0.076,south-southwest,4.7,No
2023/10/14,18:10,0.148,0.133,0.214,0.204,0.211,0.120,0.076,south-southwest,4.5,No
2023/10/14,18:20,0.147,0.135,0.215,0.204,0.210,0.120,0.077,south-southwest,3.6,No
2023/10/14,18:30,0.148,0.133,0.216,0.204,0.211,0.120,0.076,south-southwest,4.1,No
2023/10/14,18:40,0.147,0.134,0.216,0.205,0.211,0.120,0.076,south-southwest,4.4,No
2023/10/14,18:50,0.148,0.134,0.216,0.205,0.209,0.119,0.076,south-southwest,4.3,No
2023/10/14,19:00,0.147,0.135,0.216,0.205,0.210,0.120,0.077,south-southwest,4.2,No
2023/10/14,19:10,0.148,0.134,0.216,0.205,0.211,0.120,0.077,south-southwest,4.6,No
2023/10/14,19:20,0.149,0.134,0.216,0.205,0.212,0.120,0.077,south-southwest,4.3,No
2023/10/14,19:30,0.147,0.135,0.215,0.205,0.209,0.119,0.077,south-southwest,4.4,No
2023/10/14,19:40,0.148,0.135,0.215,0.205,0.211,0.120,0.076,south-southwest,3.7,No
2023/10/14,19:50,0.148,0.134,0.217,0.204,0.210,0.120,0.076,south-southwest,3.4,No
2023/10/14,20:00,0.150,0.134,0.216,0.205,0.211,0.119,0.077,southwest,2.8,No
2023/10/14,20:10,0.148,0.134,0.216,0.204,0.209,0.119,0.077,south-southwest,2.4,No
2023/10/14,20:20,0.147,0.133,0.216,0.206,0.211,0.120,0.077,south-southwest,2.4,No
2023/10/14,20:30,0.148,0.134,0.215,0.205,0.210,0.120,0.077,south-southwest,1.7,No
2023/10/14,20:40,0.148,0.132,0.216,0.205,0.210,0.120,0.077,southwest,1.9,No
2023/10/14,20:50,0.149,0.135,0.215,0.205,0.211,0.120,0.077,southwest,1.4,No
2023/10/14,21:00,0.148,0.133,0.216,0.206,0.210,0.120,0.077,west-southwest,2.7,No
2023/10/14,21:10,0.148,0.134,0.217,0.204,0.212,0.120,0.077,southwest,2.8,No
2023/10/14,21:20,0.147,0.135,0.216,0.206,0.209,0.120,0.078,southwest,2.6,No
2023/10/14,21:30,0.148,0.133,0.216,0.206,0.212,0.120,0.078,south-southwest,2.6,No
2023/10/14,21:40,0.150,0.134,0.217,0.205,0.211,0.122,0.078,south-southwest,3.3,No
2023/10/14,21:50,0.147,0.135,0.216,0.205,0.211,0.121,0.078,south-southwest,2.9,No
2023/10/14,22:00,0.149,0.134,0.217,0.204,0.211,0.120,0.077,south-southwest,3.7,No
2023/10/14,22:10,0.148,0.134,0.217,0.205,0.209,0.121,0.078,southwest,3.7,No
2023/10/14,22:20,0.149,0.134,0.216,0.205,0.212,0.121,0.077,southwest,3.9,No
2023/10/14,22:30,0.149,0.134,0.216,0.204,0.210,0.121,0.076,southwest,4.8,No
2023/10/14,22:40,0.148,0.134,0.216,0.205,0.211,0.119,0.077,southwest,3.8,No
2023/10/14,22:50,0.149,0.134,0.215,0.203,0.208,0.120,0.077,southwest,3.8,No
2023/10/14,23:00,0.147,0.135,0.216,0.206,0.211,0.120,0.077,southwest,4.0,No
2023/10/14,23:10,0.148,0.133,0.215,0.205,0.208,0.121,0.077,southwest,4.5,No
2023/10/14,23:20,0.148,0.133,0.216,0.205,0.211,0.119,0.076,southwest,4.3,No
2023/10/14,23:30,0.148,0.134,0.217,0.204,0.209,0.121,0.078,south-southwest,4.1,No
2023/10/14,23:40,0.147,0.134,0.214,0.204,0.211,0.121,0.077,south-southwest,3.1,No
2023/10/14,23:50,0.147,0.134,0.217,0.205,0.209,0.120,0.077,south,2.2,No
